Flag for U.S.A. Weather past 2 weeks in Worcester, Massachusetts, U.S.A.

26 °F


Feels Like: 17 °F
Forecast: 30 / 44 °F
Wind: 9 mph from Northwest

Location: Worcester Regional Airport

Current Time: Nov 29, 2015 at 7:34:36 AM

Latest Report: Nov 29, 2015 at 6:54 AM

Visibility: 10 mi

Pressure: 30.22 "Hg

Humidity: 77%

Dew point: 20 °F

Location of WorcesterLocation

Historic Weather in Worcester — Graph


Worcester temperature yesterday

Maximum temperature yesterday: 53 °F (at 12:54 AM)
Minimum temperature yesterday: 33 °F (at 11:54 PM)
Average temperature yesterday: 45 °F

Past Weeks' High & Low Weather Summary

High61 °F (Nov 27, 12:54 PM)97% (Nov 20, 2:02 AM)30.86 "Hg (Nov 20, 2:02 AM)
Low23 °F (Nov 24, 3:54 AM)21% (Nov 16, 4:54 PM)29.73 "Hg (Nov 14, 5:54 AM)
Average41 °F65%30.28 "Hg
* Reported Nov 14 5:54 AM — Nov 29 5:54 AM, Worcester, Weather by CustomWeather, © 2015

Note: Actual official high and low records may vary slightly from our data, if they occured in-between our weather recording intervals... More about our weather records


Worcester weather history for previous 24 hours

Time TempWeatherWind HumidityBarometerVisibility
5:54 AM
Sun, Nov 29
27 °FClear.9 mph81%30.21 "Hg10 mi
4:54 AM28 °FClear.8 mph85%30.19 "Hg10 mi
3:54 AM28 °FClear.9 mph89%30.20 "Hg10 mi
2:54 AM29 °FPassing clouds.7 mph96%30.20 "Hg7 mi
1:54 AM30 °FClear.6 mph92%30.20 "Hg10 mi
12:54 AM31 °FPassing clouds.8 mph92%30.20 "Hg10 mi
11:54 PM
Sat, Nov 28
33 °FLow clouds.8 mph92%30.20 "Hg10 mi
10:54 PM36 °FOvercast.5 mph92%30.21 "Hg10 mi
9:54 PM37 °FFog.3 mph96%30.19 "Hg2 mi
8:54 PM38 °FLight rain. Fog.6 mph97%30.19 "Hg1 mi
7:54 PM39 °FFog.6 mph96%30.18 "Hg0 mi
6:54 PM40 °FFog.6 mph97%30.18 "Hg0 mi
5:54 PM41 °FFog.3 mph93%30.17 "Hg2 mi
5:02 PM41 °FLow clouds.3 mph96%30.15 "Hg1 mi
3:54 PM42 °FLight rain. Fog.5 mph96%30.15 "Hg3 mi
3:04 PM43 °FLight rain. Fog.5 mph97%30.13 "Hg1 mi
1:54 PM43 °FLight rain. Cloudy.5 mph93%30.14 "Hg10 mi
12:54 PM44 °FLight rain. More clouds than sun.7 mph93%30.15 "Hg7 mi
12:00 PM44 °FLight rain. Cloudy.7 mph93%30.13 "Hg3 mi
11:54 AM44 °FLight rain. More clouds than sun.9 mph93%30.15 "Hg2 mi
11:02 AM47 °FRain. Fog.9 mph97%30.15 "Hg2 mi
10:54 AM48 °FRain. Fog.7 mph93%30.16 "Hg4 mi
9:54 AM51 °FLight rain. Overcast.3 mph86%30.16 "Hg10 mi
8:54 AM51 °FLight rain. Overcast.6 mph83%30.16 "Hg10 mi
7:54 AM52 °FLight rain. Overcast.7 mph77%30.15 "Hg10 mi
Weather by CustomWeather, © 2015

See weather overviewHow to use our weather pages